Location: Quebec
(46.8000°N, 71.2500°W)
Time: 06:17:57
(UTC-05:00)

N. Korean satellite - Pass Details

Date: 10 October 2017
Orbit: 461 x 513 km, 97.2° (Epoch: 16 December)

Event Time Altitude Azimuth Distance (km) Brightness Sun altitude
Rises 19:26:16 0° 194° (SSW) 2,560 10.3 -14.4°
Reaches altitude 10° 19:28:36 10° 207° (SSW) 1,674 9.6 -14.8°
Maximum altitude 19:31:38 25° 265° (W) 1,011 9.1 -15.3°
Drops below altitude 10° 19:34:38 10° 322° (NW) 1,661 9.9 -15.8°
Sets 19:36:57 0° 336° (NNW) 2,536 10.7 -16.2°
